AXB157A VOMM-VECC

Flight info

Callsign AXB157A
Flight time 1h 51m
Altitude 37000
Route DOKET2A DOKET A465 VVZ W90 LARIK A465 KAKID KAKID2A
Aircraft B38M/M-SDE1FGHILORVWXY/HB1

Departure

Time 2026-04-21 13:10
Airport Chennai International Airport (VOMM)

Arrival

Time 2026-04-21 15:01
Airport Netaji Subhash Chandra Bose International Airport (VECC)
Time Latitude Longitude Altitude Speed Heading
2026-04-21 12:50 12.98453 80.16564 52 ft 0 kts 159°
2026-04-21 13:03 12.98454 80.16564 58 ft 2 kts 159°
2026-04-21 13:03 12.98477 80.16557 50 ft 4 kts 176°
2026-04-21 13:03 12.98503 80.16561 54 ft 4 kts 208°
2026-04-21 13:04 12.98521 80.16579 49 ft 4 kts 241°
2026-04-21 13:04 12.98528 80.16593 51 ft 1 kts 249°
2026-04-21 13:06 12.98527 80.16593 51 ft 1 kts 249°
2026-04-21 13:07 12.98523 80.16581 49 ft 3 kts 249°
2026-04-21 13:07 12.98512 80.16551 52 ft 7 kts 250°
2026-04-21 13:07 12.98480 80.16462 54 ft 21 kts 250°
2026-04-21 13:07 12.98419 80.16295 53 ft 25 kts 250°
2026-04-21 13:08 12.98358 80.16125 58 ft 25 kts 249°
2026-04-21 13:08 12.98296 80.15966 54 ft 20 kts 249°
2026-04-21 13:08 12.98320 80.15805 54 ft 27 kts 288°
2026-04-21 13:08 12.98370 80.15623 58 ft 26 kts 283°
2026-04-21 13:09 12.98407 80.15485 53 ft 16 kts 300°
2026-04-21 13:09 12.98478 80.15468 53 ft 10 kts 58°
2026-04-21 13:09 12.98494 80.15505 53 ft 0 kts 69°
2026-04-21 13:09 12.98506 80.15539 56 ft 29 kts 69°
2026-04-21 13:10 12.98676 80.15991 55 ft 104 kts 69°
2026-04-21 13:10 12.99015 80.16896 57 ft 164 kts 68°
2026-04-21 13:10 12.99463 80.18118 298 ft 195 kts 75°
2026-04-21 13:10 12.99884 80.19373 1352 ft 173 kts 77°
2026-04-21 13:11 13.00350 80.20550 2014 ft 190 kts 64°
2026-04-21 13:11 13.01213 80.21672 2534 ft 210 kts 42°
2026-04-21 13:11 13.02444 80.22551 3183 ft 223 kts 35°
2026-04-21 13:11 13.03773 80.23498 3730 ft 242 kts 36°
2026-04-21 13:12 13.05198 80.24529 4301 ft 259 kts 37°
2026-04-21 13:12 13.06694 80.25623 5015 ft 268 kts 37°
2026-04-21 13:12 13.08225 80.26748 5535 ft 273 kts 37°
2026-04-21 13:12 13.09765 80.27884 5677 ft 272 kts 37°
2026-04-21 13:13 13.11300 80.29018 5753 ft 271 kts 37°
2026-04-21 13:13 13.12826 80.30147 5764 ft 270 kts 37°
2026-04-21 13:13 13.14352 80.31275 5769 ft 271 kts 36°
2026-04-21 13:13 13.15884 80.32408 5776 ft 271 kts 37°
2026-04-21 13:14 13.17409 80.33536 5773 ft 269 kts 37°
2026-04-21 13:14 13.18928 80.34660 5770 ft 270 kts 37°
2026-04-21 13:14 13.20456 80.35790 5782 ft 271 kts 37°
2026-04-21 13:14 13.21984 80.36921 5779 ft 270 kts 37°
2026-04-21 13:15 13.23501 80.38044 5777 ft 270 kts 37°
2026-04-21 13:15 13.25029 80.39174 5787 ft 271 kts 37°
2026-04-21 13:15 13.26559 80.40307 5789 ft 271 kts 37°
2026-04-21 13:15 13.28082 80.41435 5784 ft 270 kts 36°
2026-04-21 13:16 13.29603 80.42562 5785 ft 271 kts 36°
2026-04-21 13:16 13.31128 80.43709 6018 ft 271 kts 38°
2026-04-21 13:16 13.32633 80.44863 6932 ft 268 kts 38°
2026-04-21 13:16 13.34139 80.46016 7785 ft 273 kts 38°
2026-04-21 13:17 13.35682 80.47196 8569 ft 278 kts 37°
2026-04-21 13:17 13.37231 80.48382 9499 ft 278 kts 38°
2026-04-21 13:17 13.38795 80.49578 10217 ft 287 kts 38°
2026-04-21 13:17 13.40448 80.50843 10595 ft 307 kts 37°
2026-04-21 13:18 13.42215 80.52195 10919 ft 326 kts 38°
2026-04-21 13:18 13.44077 80.53620 11309 ft 341 kts 37°
2026-04-21 13:18 13.46010 80.55098 11880 ft 348 kts 37°
2026-04-21 13:18 13.47954 80.56586 12643 ft 350 kts 38°
2026-04-21 13:19 13.49918 80.58091 13312 ft 355 kts 37°
2026-04-21 13:19 13.51885 80.59597 13929 ft 359 kts 37°
2026-04-21 13:19 13.53917 80.61153 14615 ft 361 kts 37°
2026-04-21 13:19 13.55923 80.62690 15142 ft 367 kts 37°
2026-04-21 13:20 13.57316 80.63757 15510 ft 371 kts 37°
2026-04-21 13:20 13.60062 80.65862 16312 ft 375 kts 37°
2026-04-21 13:20 13.62176 80.67482 16759 ft 383 kts 37°
2026-04-21 13:20 13.64312 80.69120 17349 ft 385 kts 37°
2026-04-21 13:21 13.66470 80.70776 17820 ft 391 kts 37°
2026-04-21 13:21 13.68665 80.72460 18279 ft 395 kts 36°
2026-04-21 13:21 13.70878 80.74158 18690 ft 399 kts 36°
2026-04-21 13:21 13.73115 80.75876 19109 ft 403 kts 36°
2026-04-21 13:22 13.75378 80.77612 19520 ft 408 kts 36°
2026-04-21 13:22 13.77659 80.79364 19932 ft 411 kts 36°
2026-04-21 13:22 13.79962 80.81134 20359 ft 415 kts 36°
2026-04-21 13:22 13.82291 80.82923 20697 ft 420 kts 36°
2026-04-21 13:23 13.84633 80.84723 21180 ft 422 kts 36°
2026-04-21 13:23 13.86999 80.86542 21495 ft 428 kts 36°
2026-04-21 13:23 13.89396 80.88385 21923 ft 430 kts 36°
2026-04-21 13:23 13.91796 80.90231 22347 ft 433 kts 36°
2026-04-21 13:24 13.94227 80.92101 22713 ft 436 kts 36°
2026-04-21 13:24 13.96656 80.93970 23238 ft 436 kts 36°
2026-04-21 13:24 13.99097 80.95849 23518 ft 442 kts 36°
2026-04-21 13:24 14.01559 80.97745 23882 ft 443 kts 36°
2026-04-21 13:25 14.04033 80.99651 24174 ft 446 kts 36°
2026-04-21 13:25 14.06532 81.01575 24495 ft 449 kts 36°
2026-04-21 13:25 14.09046 81.03513 24787 ft 453 kts 36°
2026-04-21 13:25 14.11577 81.05464 25103 ft 456 kts 36°
2026-04-21 13:26 14.14125 81.07429 25415 ft 459 kts 36°
2026-04-21 13:26 14.16684 81.09402 25723 ft 462 kts 36°
2026-04-21 13:26 14.19265 81.11394 26031 ft 465 kts 36°
2026-04-21 13:26 14.21864 81.13400 26327 ft 468 kts 36°
2026-04-21 13:27 14.24479 81.15418 26628 ft 471 kts 36°
2026-04-21 13:27 14.27073 81.17421 26924 ft 474 kts 36°
2026-04-21 13:27 14.29720 81.19466 27217 ft 477 kts 36°
2026-04-21 13:27 14.32383 81.21524 27514 ft 480 kts 36°
2026-04-21 13:28 14.35060 81.23593 27809 ft 483 kts 36°
2026-04-21 13:28 14.37757 81.25677 28097 ft 486 kts 36°
2026-04-21 13:28 14.39583 81.27090 28293 ft 488 kts 37°
2026-04-21 13:28 14.43196 81.29883 28662 ft 492 kts 36°
2026-04-21 13:29 14.45050 81.31318 28821 ft 494 kts 36°
2026-04-21 13:29 14.47807 81.33453 29110 ft 497 kts 36°
2026-04-21 13:29 14.51483 81.36299 29467 ft 501 kts 36°
2026-04-21 13:29 14.53364 81.37756 29643 ft 502 kts 36°
2026-04-21 13:30 14.56170 81.39930 29897 ft 505 kts 36°
2026-04-21 13:30 14.58988 81.42114 30122 ft 508 kts 36°
2026-04-21 13:30 14.61779 81.44278 30365 ft 509 kts 36°
2026-04-21 13:30 14.64617 81.46479 30605 ft 511 kts 36°
2026-04-21 13:31 14.67502 81.48717 30845 ft 513 kts 36°
2026-04-21 13:31 14.70323 81.50906 31086 ft 515 kts 36°
2026-04-21 13:31 14.73195 81.53136 31316 ft 517 kts 37°
2026-04-21 13:31 14.76076 81.55373 31557 ft 519 kts 37°
2026-04-21 13:32 14.78962 81.57615 31877 ft 519 kts 36°
2026-04-21 13:32 14.81847 81.59857 32172 ft 519 kts 37°
2026-04-21 13:32 14.84731 81.62098 32490 ft 519 kts 37°
2026-04-21 13:32 14.87616 81.64342 32795 ft 519 kts 37°
2026-04-21 13:33 14.90503 81.66588 33118 ft 519 kts 37°
2026-04-21 13:33 14.93389 81.68834 33440 ft 519 kts 37°
2026-04-21 13:33 14.96310 81.71107 33778 ft 519 kts 37°
2026-04-21 13:33 14.99153 81.73320 34063 ft 518 kts 37°
2026-04-21 13:34 15.02034 81.75564 34349 ft 518 kts 37°
2026-04-21 13:34 15.04907 81.77803 34669 ft 517 kts 37°
2026-04-21 13:34 15.07779 81.80041 34950 ft 516 kts 37°
2026-04-21 13:34 15.10699 81.82197 35218 ft 516 kts 29°
2026-04-21 13:35 15.13930 81.83748 35503 ft 512 kts 15°
2026-04-21 13:35 15.17398 81.84467 35759 ft 505 kts 360°
2026-04-21 13:35 15.20901 81.84505 35980 ft 503 kts 356°
2026-04-21 13:35 15.24409 81.84494 36188 ft 504 kts 356°
2026-04-21 13:36 15.27914 81.84458 36435 ft 504 kts 356°
2026-04-21 13:36 15.31420 81.84409 36684 ft 504 kts 355°
2026-04-21 13:36 15.34928 81.84356 36841 ft 505 kts 355°
2026-04-21 13:36 15.38443 81.84301 36824 ft 503 kts 355°
2026-04-21 13:37 15.45421 81.84188 36829 ft 502 kts 355°
2026-04-21 13:37 15.52409 81.84153 36810 ft 505 kts
2026-04-21 13:38 15.55872 81.84829 36806 ft 509 kts 18°
2026-04-21 13:38 15.59074 81.86390 36831 ft 512 kts 32°
2026-04-21 13:38 15.65103 81.90380 36819 ft 514 kts 32°
2026-04-21 13:39 15.71113 81.94411 36820 ft 515 kts 33°
2026-04-21 13:39 15.77121 81.98460 36820 ft 515 kts 33°
2026-04-21 13:40 15.83122 82.02507 36816 ft 515 kts 33°
2026-04-21 13:40 15.89170 82.06508 36831 ft 516 kts 32°
2026-04-21 13:41 15.95224 82.10504 36821 ft 516 kts 32°
2026-04-21 13:41 16.01290 82.14512 36831 ft 516 kts 32°
2026-04-21 13:42 16.07306 82.18489 36831 ft 516 kts 32°
2026-04-21 13:42 16.13369 82.22501 36830 ft 516 kts 32°
2026-04-21 13:43 16.19424 82.26511 36816 ft 516 kts 32°
2026-04-21 13:43 16.25528 82.30556 36816 ft 519 kts 32°
2026-04-21 13:44 16.31583 82.34571 36830 ft 519 kts 32°
2026-04-21 13:44 16.37670 82.38612 36814 ft 519 kts 32°
2026-04-21 13:45 16.43757 82.42655 36825 ft 518 kts 32°
2026-04-21 13:45 16.49833 82.46693 36808 ft 518 kts 32°
2026-04-21 13:46 16.55919 82.50742 36808 ft 518 kts 32°
2026-04-21 13:46 16.61998 82.54788 36812 ft 519 kts 31°
2026-04-21 13:47 16.68084 82.58842 36816 ft 519 kts 31°
2026-04-21 13:47 16.74181 82.62907 36814 ft 519 kts 31°
2026-04-21 13:48 16.80260 82.66973 36812 ft 519 kts 32°
2026-04-21 13:48 16.86342 82.71046 36813 ft 519 kts 32°
2026-04-21 13:49 16.92425 82.75123 36826 ft 520 kts 31°
2026-04-21 13:49 16.98527 82.79217 36798 ft 521 kts 32°
2026-04-21 13:50 17.04612 82.83301 36804 ft 520 kts 32°
2026-04-21 13:50 17.10692 82.87384 36808 ft 520 kts 32°
2026-04-21 13:51 17.16772 82.91472 36813 ft 520 kts 32°
2026-04-21 13:51 17.22859 82.95568 36805 ft 520 kts 32°
2026-04-21 13:52 17.28934 82.99659 36820 ft 520 kts 31°
2026-04-21 13:52 17.35035 83.03770 36813 ft 522 kts 31°
2026-04-21 13:53 17.41141 83.07889 36811 ft 522 kts 31°
2026-04-21 13:53 17.47246 83.12009 36813 ft 522 kts 31°
2026-04-21 13:54 17.53352 83.16134 36803 ft 522 kts 31°
2026-04-21 13:54 17.59451 83.20257 36844 ft 521 kts 31°
2026-04-21 13:55 17.65459 83.24394 36817 ft 522 kts 38°
2026-04-21 13:55 17.68040 83.27067 36789 ft 520 kts 53°
2026-04-21 13:55 17.70257 83.30051 36838 ft 522 kts 52°
2026-04-21 13:56 17.74723 83.36070 36826 ft 523 kts 53°
2026-04-21 13:56 17.79146 83.42142 36818 ft 523 kts 53°
2026-04-21 13:57 17.83558 83.48215 36811 ft 523 kts 54°
2026-04-21 13:57 17.87968 83.54293 36801 ft 523 kts 53°
2026-04-21 13:58 17.92370 83.60363 36809 ft 522 kts 53°
2026-04-21 13:58 17.96771 83.66439 36805 ft 522 kts 53°
2026-04-21 13:59 18.01166 83.72513 36810 ft 524 kts 53°
2026-04-21 13:59 18.05581 83.78619 36805 ft 525 kts 53°
2026-04-21 14:00 18.09993 83.84728 36808 ft 525 kts 53°
2026-04-21 14:00 18.14405 83.90841 36807 ft 525 kts 53°
2026-04-21 14:01 18.18814 83.96957 36801 ft 524 kts 53°
2026-04-21 14:01 18.23214 84.03065 36801 ft 524 kts 53°
2026-04-21 14:02 18.27613 84.09179 36798 ft 524 kts 53°
2026-04-21 14:03 18.34209 84.18356 36801 ft 524 kts 53°
2026-04-21 14:03 18.38606 84.24480 36803 ft 525 kts 53°
2026-04-21 14:04 18.43005 84.30613 36792 ft 525 kts 53°
2026-04-21 14:04 18.47411 84.36762 36799 ft 525 kts 53°
2026-04-21 14:05 18.51812 84.42911 36796 ft 525 kts 53°
2026-04-21 14:05 18.56210 84.49061 36797 ft 526 kts 53°
2026-04-21 14:06 18.60579 84.55177 36797 ft 525 kts 53°
2026-04-21 14:06 18.65000 84.61370 36790 ft 526 kts 53°
2026-04-21 14:07 18.69363 84.67489 36785 ft 526 kts 53°
2026-04-21 14:07 18.73757 84.73657 36788 ft 526 kts 53°
2026-04-21 14:08 18.78146 84.79823 36788 ft 526 kts 53°
2026-04-21 14:08 18.82536 84.85994 36785 ft 526 kts 53°
2026-04-21 14:09 18.86980 84.92123 36786 ft 526 kts 53°
2026-04-21 14:09 18.91420 84.98254 36785 ft 526 kts 53°
2026-04-21 14:10 18.95859 85.04390 36784 ft 526 kts 53°
2026-04-21 14:10 19.00286 85.10516 36783 ft 524 kts 53°
2026-04-21 14:11 19.04707 85.16639 36783 ft 524 kts 53°
2026-04-21 14:11 19.09132 85.22774 36779 ft 526 kts 53°
2026-04-21 14:12 19.13822 85.28698 36791 ft 526 kts 46°
2026-04-21 14:12 19.18841 85.34349 36774 ft 526 kts 46°
2026-04-21 14:13 19.23867 85.39982 36775 ft 527 kts 46°
2026-04-21 14:13 19.28860 85.45581 36773 ft 526 kts 46°
2026-04-21 14:14 19.33869 85.51203 36768 ft 525 kts 46°
2026-04-21 14:14 19.38875 85.56826 36769 ft 525 kts 46°
2026-04-21 14:15 19.43894 85.62470 36772 ft 527 kts 46°
2026-04-21 14:15 19.48926 85.68134 36767 ft 528 kts 46°
2026-04-21 14:16 19.53960 85.73804 36769 ft 528 kts 46°
2026-04-21 14:16 19.58989 85.79476 36768 ft 528 kts 46°
2026-04-21 14:17 19.63202 85.84231 36759 ft 528 kts 46°
2026-04-21 14:17 19.68197 85.89874 36769 ft 528 kts 46°
2026-04-21 14:18 19.73229 85.95564 36765 ft 528 kts 46°
2026-04-21 14:18 19.78250 86.01248 36766 ft 527 kts 46°
2026-04-21 14:19 19.83262 86.06927 36762 ft 527 kts 46°
2026-04-21 14:19 19.88277 86.12613 36761 ft 527 kts 46°
2026-04-21 14:20 19.93224 86.18356 36751 ft 527 kts 47°
2026-04-21 14:20 19.98146 86.24132 36759 ft 527 kts 46°
2026-04-21 14:21 20.03070 86.29909 36751 ft 527 kts 46°
2026-04-21 14:21 20.08072 86.35615 36755 ft 527 kts 45°
2026-04-21 14:22 20.13082 86.41302 36758 ft 526 kts 46°
2026-04-21 14:22 20.18080 86.46983 36747 ft 526 kts 46°
2026-04-21 14:23 20.23083 86.52678 36754 ft 526 kts 46°
2026-04-21 14:23 20.28078 86.58368 36746 ft 525 kts 45°
2026-04-21 14:24 20.33060 86.64051 36745 ft 524 kts 45°
2026-04-21 14:24 20.38038 86.69733 36753 ft 524 kts 46°
2026-04-21 14:25 20.43010 86.75415 36752 ft 524 kts 46°
2026-04-21 14:25 20.47982 86.81102 36759 ft 524 kts 46°
2026-04-21 14:26 20.52947 86.86788 36755 ft 524 kts 46°
2026-04-21 14:26 20.57911 86.92478 36756 ft 524 kts 46°
2026-04-21 14:27 20.62820 86.98202 36747 ft 520 kts 52°
2026-04-21 14:27 20.64673 87.01494 36731 ft 516 kts 68°
2026-04-21 14:27 20.65974 87.05057 36769 ft 517 kts 70°
2026-04-21 14:28 20.68522 87.12263 36765 ft 518 kts 71°
2026-04-21 14:28 20.71003 87.19499 36765 ft 519 kts 71°
2026-04-21 14:29 20.73472 87.26738 36759 ft 519 kts 71°
2026-04-21 14:29 20.75935 87.33973 36754 ft 519 kts 71°
2026-04-21 14:30 20.78411 87.41257 36765 ft 523 kts 71°
2026-04-21 14:30 20.80969 87.48478 36759 ft 517 kts 63°
2026-04-21 14:30 20.82946 87.51666 36742 ft 513 kts 47°
2026-04-21 14:31 20.85383 87.54442 36775 ft 514 kts 45°
2026-04-21 14:31 20.90339 87.59984 36768 ft 515 kts 44°
2026-04-21 14:32 20.95339 87.65482 36763 ft 515 kts 44°
2026-04-21 14:32 21.00345 87.70983 36750 ft 515 kts 44°
2026-04-21 14:33 21.05313 87.76447 36757 ft 516 kts 44°
2026-04-21 14:33 21.10321 87.81960 36758 ft 516 kts 44°
2026-04-21 14:34 21.15321 87.87471 36763 ft 515 kts 44°
2026-04-21 14:34 21.20297 87.92960 36754 ft 513 kts 44°
2026-04-21 14:35 21.25272 87.98454 36754 ft 514 kts 44°
2026-04-21 14:35 21.30251 88.03958 36755 ft 514 kts 44°
2026-04-21 14:36 21.35224 88.09461 36747 ft 514 kts 44°
2026-04-21 14:36 21.40194 88.14965 36746 ft 513 kts 44°
2026-04-21 14:37 21.45152 88.20464 36749 ft 513 kts 44°
2026-04-21 14:37 21.50112 88.25969 36702 ft 510 kts 44°
2026-04-21 14:37 21.52607 88.28652 36011 ft 507 kts 39°
2026-04-21 14:38 21.55474 88.30884 34735 ft 513 kts 22°
2026-04-21 14:38 21.58782 88.32209 34166 ft 501 kts 11°
2026-04-21 14:38 21.62121 88.33273 33471 ft 500 kts 11°
2026-04-21 14:38 21.65490 88.34318 32201 ft 510 kts 11°
2026-04-21 14:39 21.68897 88.35350 31121 ft 505 kts 11°
2026-04-21 14:39 21.72260 88.36354 30189 ft 499 kts 10°
2026-04-21 14:39 21.75594 88.37344 29111 ft 494 kts 10°
2026-04-21 14:39 21.78881 88.38320 28064 ft 489 kts 11°
2026-04-21 14:40 21.82150 88.39289 27342 ft 497 kts 10°
2026-04-21 14:40 21.85553 88.40302 26562 ft 502 kts 11°
2026-04-21 14:40 21.88915 88.41302 25802 ft 501 kts 11°
2026-04-21 14:40 21.92221 88.42286 25047 ft 497 kts 11°
2026-04-21 14:41 21.95529 88.43270 24291 ft 491 kts 11°
2026-04-21 14:41 21.98800 88.44244 23542 ft 485 kts 11°
2026-04-21 14:41 22.02039 88.45208 22700 ft 479 kts 12°
2026-04-21 14:41 22.05225 88.46158 21930 ft 472 kts 12°
2026-04-21 14:42 22.08372 88.47096 21204 ft 466 kts 12°
2026-04-21 14:42 22.11465 88.48018 20506 ft 459 kts 12°
2026-04-21 14:42 22.14525 88.48931 19811 ft 452 kts 12°
2026-04-21 14:42 22.17528 88.49828 19128 ft 446 kts 12°
2026-04-21 14:43 22.20503 88.50716 18439 ft 440 kts 12°
2026-04-21 14:43 22.23436 88.51592 17748 ft 434 kts 12°
2026-04-21 14:43 22.26330 88.52457 17042 ft 429 kts 12°
2026-04-21 14:43 22.29192 88.53254 16336 ft 420 kts
2026-04-21 14:44 22.32066 88.53587 15687 ft 413 kts
2026-04-21 14:44 22.34875 88.53890 15122 ft 398 kts
2026-04-21 14:44 22.37584 88.54178 14562 ft 385 kts
2026-04-21 14:44 22.40209 88.54456 14013 ft 373 kts
2026-04-21 14:45 22.42757 88.54725 13482 ft 362 kts
2026-04-21 14:45 22.45234 88.54987 12897 ft 352 kts
2026-04-21 14:45 22.47637 88.55241 12381 ft 342 kts
2026-04-21 14:45 22.49968 88.55488 11899 ft 332 kts
2026-04-21 14:46 22.52236 88.55728 11486 ft 322 kts
2026-04-21 14:46 22.54407 88.55957 11299 ft 304 kts
2026-04-21 14:46 22.56460 88.56174 11137 ft 288 kts
2026-04-21 14:46 22.58400 88.56379 10966 ft 273 kts
2026-04-21 14:47 22.60258 88.56576 10823 ft 265 kts
2026-04-21 14:47 22.62085 88.56770 10685 ft 263 kts
2026-04-21 14:47 22.63904 88.56962 10556 ft 263 kts
2026-04-21 14:47 22.65726 88.57156 10441 ft 263 kts
2026-04-21 14:48 22.67543 88.57348 10295 ft 262 kts
2026-04-21 14:48 22.69354 88.57540 10157 ft 261 kts
2026-04-21 14:48 22.71157 88.57721 10016 ft 259 kts
2026-04-21 14:48 22.72919 88.57893 9843 ft 248 kts
2026-04-21 14:49 22.74585 88.58057 9714 ft 240 kts
2026-04-21 14:49 22.76240 88.58219 9559 ft 238 kts
2026-04-21 14:49 22.77885 88.58381 9346 ft 237 kts
2026-04-21 14:49 22.79521 88.58542 9180 ft 236 kts
2026-04-21 14:50 22.80628 88.58651 9075 ft 235 kts
2026-04-21 14:50 22.82771 88.58862 8890 ft 230 kts
2026-04-21 14:50 22.84354 88.59018 8751 ft 227 kts
2026-04-21 14:50 22.85913 88.59242 8555 ft 227 kts
2026-04-21 14:51 22.87495 88.59500 8139 ft 234 kts
2026-04-21 14:51 22.89131 88.59762 7609 ft 241 kts
2026-04-21 14:51 22.90803 88.60029 7118 ft 244 kts
2026-04-21 14:51 22.92495 88.60297 6648 ft 246 kts
2026-04-21 14:52 22.94179 88.60560 6330 ft 240 kts
2026-04-21 14:52 22.95755 88.60390 6206 ft 220 kts 333°
2026-04-21 14:52 22.96893 88.59433 6092 ft 198 kts 302°
2026-04-21 14:52 22.97381 88.58094 5932 ft 190 kts 274°
2026-04-21 14:53 22.97353 88.57148 5816 ft 189 kts 257°
2026-04-21 14:53 22.96535 88.55494 5564 ft 190 kts 225°
2026-04-21 14:53 22.95437 88.54699 5364 ft 191 kts 208°
2026-04-21 14:53 22.94234 88.54075 5155 ft 191 kts 207°
2026-04-21 14:54 22.93029 88.53481 4919 ft 190 kts 206°
2026-04-21 14:54 22.91867 88.52816 4654 ft 187 kts 224°
2026-04-21 14:54 22.91125 88.51684 4430 ft 185 kts 242°
2026-04-21 14:54 22.90547 88.50431 4300 ft 187 kts 243°
2026-04-21 14:55 22.89987 88.49158 4248 ft 187 kts 244°
2026-04-21 14:55 22.89213 88.48061 3995 ft 182 kts 214°
2026-04-21 14:55 22.88075 88.47564 3843 ft 176 kts 196°
2026-04-21 14:55 22.86876 88.47327 3630 ft 174 kts 190°
2026-04-21 14:56 22.85677 88.47163 3412 ft 173 kts 189°
2026-04-21 14:56 22.84889 88.47067 3273 ft 172 kts 189°
2026-04-21 14:56 22.83307 88.46878 2994 ft 171 kts 188°
2026-04-21 14:56 22.82141 88.46740 2781 ft 171 kts 188°
2026-04-21 14:57 22.80967 88.46601 2578 ft 169 kts 188°
2026-04-21 14:57 22.79806 88.46463 2365 ft 167 kts 187°
2026-04-21 14:57 22.78649 88.46326 2171 ft 167 kts 186°
2026-04-21 14:57 22.77501 88.46192 1951 ft 165 kts 187°
2026-04-21 14:58 22.76730 88.46101 1804 ft 164 kts 187°
2026-04-21 14:58 22.75637 88.45973 1606 ft 151 kts 187°
2026-04-21 14:58 22.74376 88.45824 1400 ft 126 kts 186°
2026-04-21 14:58 22.73791 88.45758 1263 ft 125 kts 188°
2026-04-21 14:59 22.73511 88.45724 1210 ft 125 kts 188°
2026-04-21 14:59 22.71090 88.45437 768 ft 128 kts 184°
2026-04-21 14:59 22.70199 88.45333 665 ft 129 kts 184°
2026-04-21 15:00 22.69317 88.45229 512 ft 126 kts 184°
2026-04-21 15:00 22.68452 88.45122 333 ft 125 kts 183°
2026-04-21 15:00 22.67579 88.45028 156 ft 127 kts 184°
2026-04-21 15:00 22.66705 88.44921 30 ft 121 kts 185°
2026-04-21 15:01 22.66100 88.44848 31 ft 61 kts 186°
2026-04-21 15:01 22.65669 88.44807 34 ft 62 kts 186°
2026-04-21 15:01 22.65247 88.44757 31 ft 59 kts 186°
2026-04-21 15:01 22.64969 88.44700 27 ft 25 kts 204°
2026-04-21 15:02 22.64856 88.44629 28 ft 17 kts 213°
2026-04-21 15:02 22.64753 88.44557 28 ft 18 kts 213°
2026-04-21 15:02 22.64669 88.44497 30 ft 14 kts 218°
2026-04-21 15:02 22.64656 88.44443 30 ft 4 kts 276°
2026-04-21 15:03 22.64660 88.44401 30 ft 7 kts 271°
2026-04-21 15:03 22.64631 88.44363 30 ft 7 kts 191°
2026-04-21 15:03 22.64571 88.44356 30 ft 10 kts 186°
2026-04-21 15:03 22.64522 88.44350 31 ft 12 kts 187°
2026-04-21 15:04 22.64431 88.44339 31 ft 15 kts 186°
2026-04-21 15:04 22.64294 88.44318 31 ft 2 kts 210°
2026-04-21 15:04 22.64284 88.44302 31 ft 4 kts 252°
2026-04-21 15:05 22.64283 88.44269 31 ft 6 kts 274°
2026-04-21 15:05 22.64308 88.44165 31 ft 5 kts 330°
2026-04-21 15:05 22.64333 88.44138 31 ft 6 kts 301°
2026-04-21 15:06 22.64341 88.44092 31 ft 6 kts 273°
2026-04-21 15:06 22.64342 88.44076 31 ft 1 kts 277°
2026-04-21 15:06 22.64343 88.44071 31 ft 0 kts 277°